Port Heiden, AK

3:22 PM AKST on February 25, 2017 (GMT -0900)
Port Heiden

Weather History for PAPH - January, 2014

Change the Weather History Date:

Monday, January 6, 2014

  Actual Average Record
Temperature  
Mean Temperature 38 °F -  
Max Temperature 42 °F 27 °F 42 °F (2014)
Min Temperature 35 °F 16 °F -17 °F (1997)
Degree Days  
Heating Degree Days 26    
Moisture  
Dew Point 30 °F    
Average Humidity 69    
Maximum Humidity 76    
Minimum Humidity 61    
Precipitation  
Precipitation 0.00 in - - ()
Sea Level Pressure  
Sea Level Pressure 29.24 in    
Wind  
Wind Speed 19 mph (SE)    
Max Wind Speed 39 mph    
Max Gust Speed 52 mph    
Visibility 10 miles    
Events      
Averages and records for this station are not official NWS values.
T = Trace of Precipitation, MM = Missing Value Source: NWS Daily Summary

Daily Weather History Graph

Daily Weather History Graph

Search for Another Location

Airport or City:

Trip Planner

Search our weather history database for the weather conditions in past years. The results will help you decide how hot, cold, wet, or windy it might be!

Date:

Astronomy

Jan. 06, 2014 Rise Set
Actual Time 10:09 AM AKST 5:11 PM AKST
Civil Twilight 9:21 AM AKST 5:59 PM AKST
Nautical Twilight 8:31 AM AKST 6:49 PM AKST
Astronomical Twilight 7:45 AM AKST 7:36 PM AKST
Moon 12:10 PM AKST (1/6) 12:05 AM AKST (1/6)
Length of Visible Light 8h 38m
Length of Day
7h 02m
Waxing Crescent, 36% of the Moon is Illuminated
Jan 6
Waxing Crescent
Jan 7
First Quarter
Jan 15
Full
Jan 23
Last Quarter
Jan 30
New

Hourly Weather History & Observations

Time (AKST) Temp. Windchill Dew Point Humidity Pressure Visibility Wind Dir Wind Speed Gust Speed Precip Events Conditions
12:16 AM 37.4 °F 29.3 °F 28.4 °F 70% 29.30 in 10.0 mi SE 12.7 mph - N/A   Overcast
12:36 AM 37.4 °F 30.8 °F 28.4 °F 70% 29.31 in 10.0 mi SSE 9.2 mph - N/A   Overcast
12:56 AM 37.4 °F 29.8 °F 30.2 °F 75% 29.31 in 10.0 mi SE 11.5 mph - N/A   Overcast
1:16 AM 37.4 °F 30.3 °F 28.4 °F 70% 29.31 in 10.0 mi SSE 10.4 mph - N/A   Overcast
1:36 AM 37.4 °F 30.3 °F 28.4 °F 70% 29.31 in 10.0 mi SSE 10.4 mph - N/A   Mostly Cloudy
1:56 AM 37.4 °F 29.8 °F 28.4 °F 70% 29.31 in 10.0 mi SSE 11.5 mph - N/A   Mostly Cloudy
2:16 AM 35.6 °F 27.5 °F 28.4 °F 75% 29.32 in 10.0 mi SSE 11.5 mph - N/A   Overcast
2:36 AM 35.6 °F 27.5 °F 28.4 °F 75% 29.33 in 10.0 mi SSE 11.5 mph - N/A   Mostly Cloudy
2:56 AM 35.6 °F 27.5 °F 28.4 °F 75% 29.33 in 10.0 mi SSE 11.5 mph - N/A   Clear
3:16 AM 35.6 °F 27.1 °F 28.4 °F 75% 29.34 in 10.0 mi SSE 12.7 mph - N/A   Clear
3:36 AM 35.6 °F 26.6 °F 28.4 °F 75% 29.34 in 10.0 mi SSE 13.8 mph - N/A   Clear
3:56 AM 35.6 °F 26.6 °F 28.4 °F 75% 29.35 in 10.0 mi SSE 13.8 mph - N/A   Clear
4:16 AM 35.6 °F 27.1 °F 26.6 °F 70% 29.35 in 10.0 mi SSE 12.7 mph - N/A   Partly Cloudy
4:36 AM 35.6 °F 27.5 °F 26.6 °F 70% 29.36 in 10.0 mi SSE 11.5 mph - N/A   Partly Cloudy
4:56 AM 35.6 °F 28.6 °F 26.6 °F 70% 29.36 in 10.0 mi SE 9.2 mph - N/A   Clear
5:16 AM 35.6 °F 26.2 °F 26.6 °F 70% 29.35 in 10.0 mi SE 15.0 mph - N/A   Clear
5:36 AM 35.6 °F 26.2 °F 26.6 °F 70% 29.35 in 10.0 mi SE 15.0 mph - N/A   Clear
5:56 AM 35.6 °F 26.6 °F 26.6 °F 70% 29.35 in 10.0 mi SE 13.8 mph - N/A   Clear
6:16 AM 37.4 °F 28.9 °F 28.4 °F 70% 29.35 in 10.0 mi SE 13.8 mph - N/A   Clear
6:36 AM 37.4 °F 27.5 °F 26.6 °F 65% 29.35 in 10.0 mi SE 18.4 mph - N/A   Clear
6:56 AM 37.4 °F 26.6 °F 26.6 °F 65% 29.33 in 10.0 mi SE 21.9 mph 27.6 mph N/A   Clear
7:16 AM 37.4 °F 26.9 °F 28.4 °F 70% 29.35 in 10.0 mi SE 20.7 mph 27.6 mph N/A   Clear
7:36 AM 37.4 °F 27.5 °F 28.4 °F 70% 29.33 in 10.0 mi SE 18.4 mph 23.0 mph N/A   Clear
7:56 AM 37.4 °F 26.9 °F 28.4 °F 70% 29.33 in 10.0 mi SE 20.7 mph 25.3 mph N/A   Clear
8:16 AM 37.4 °F 27.2 °F 28.4 °F 70% 29.33 in 10.0 mi SE 19.6 mph 25.3 mph N/A   Clear
8:36 AM 37.4 °F 26.9 °F 28.4 °F 70% 29.32 in 10.0 mi SE 20.7 mph 27.6 mph N/A   Partly Cloudy
8:56 AM 37.4 °F 28.5 °F 28.4 °F 70% 29.32 in 10.0 mi SE 15.0 mph - N/A   Mostly Cloudy
9:16 AM 39.2 °F 31.2 °F 28.4 °F 65% 29.32 in 10.0 mi ESE 13.8 mph 21.9 mph N/A   Overcast
9:36 AM 39.2 °F 29.8 °F 28.4 °F 65% 29.31 in 10.0 mi SE 18.4 mph 27.6 mph N/A   Mostly Cloudy
9:56 AM 39.2 °F 29.3 °F 28.4 °F 65% 29.31 in 10.0 mi SE 20.7 mph 27.6 mph N/A   Scattered Clouds
10:16 AM 39.2 °F 29.0 °F 28.4 °F 65% 29.31 in 10.0 mi SE 21.9 mph 28.8 mph N/A   Clear
10:36 AM 39.2 °F 27.4 °F 28.4 °F 65% 29.29 in 10.0 mi SE 29.9 mph 35.7 mph N/A   Clear
10:56 AM - - - N/A% 29.29 in 10.0 mi SE 27.6 mph 39.1 mph N/A   Clear
11:16 AM 39.2 °F 27.4 °F 30.2 °F 70% 29.28 in 10.0 mi SE 29.9 mph 33.4 mph N/A   Partly Cloudy
11:36 AM - - - N/A% 29.28 in 10.0 mi ESE 21.9 mph 36.8 mph N/A   Mostly Cloudy
11:56 AM 41.0 °F 30.7 °F 30.2 °F 65% 29.27 in 10.0 mi SE 25.3 mph 34.5 mph N/A   Mostly Cloudy
12:16 PM 42.8 °F 32.9 °F 30.2 °F 61% 29.26 in 10.0 mi SE 26.5 mph 36.8 mph N/A   Overcast
12:36 PM 42.8 °F 32.3 °F 32.0 °F 66% 29.24 in 10.0 mi SE 29.9 mph 35.7 mph N/A   Overcast
12:56 PM 42.8 °F 31.9 °F 32.0 °F 66% 29.24 in 10.0 mi SE 32.2 mph 38.0 mph N/A   Overcast
1:16 PM - - - N/A% 29.23 in 10.0 mi SE 27.6 mph 41.4 mph N/A   Overcast
1:36 PM 41.0 °F 30.5 °F 30.2 °F 65% 29.23 in 10.0 mi SE 26.5 mph 38.0 mph N/A   Overcast
1:56 PM 39.2 °F 28.3 °F 30.2 °F 70% 29.23 in 10.0 mi SE 25.3 mph 33.4 mph N/A   Overcast
2:16 PM 41.0 °F 31.1 °F 30.2 °F 65% 29.21 in 10.0 mi SE 23.0 mph 33.4 mph N/A   Overcast
2:36 PM - - - N/A% 29.18 in 10.0 mi SE 31.1 mph 39.1 mph N/A   Overcast
2:56 PM 41.0 °F 29.1 °F 32.0 °F 70% 29.16 in 5.0 mi SE 34.5 mph 41.4 mph N/A   Overcast
3:16 PM 41.0 °F 29.8 °F 33.8 °F 76% 29.16 in 8.0 mi SE 29.9 mph 43.7 mph N/A   Overcast
3:36 PM 42.8 °F 32.9 °F 30.2 °F 61% 29.16 in 10.0 mi SE 26.5 mph 40.3 mph N/A   Overcast
3:56 PM 42.8 °F 32.5 °F 32.0 °F 66% 29.16 in 10.0 mi SE 28.8 mph 36.8 mph N/A   Overcast
4:16 PM 42.8 °F 31.9 °F 32.0 °F 66% 29.15 in 10.0 mi SE 32.2 mph 39.1 mph N/A   Overcast
4:36 PM 42.8 °F 31.6 °F 32.0 °F 66% 29.13 in 10.0 mi SE 34.5 mph 41.4 mph N/A   Overcast
4:56 PM - - - N/A% 29.12 in 10.0 mi SE 29.9 mph 42.6 mph N/A   Overcast
5:16 PM - - - N/A% 29.09 in 9.0 mi SE 36.8 mph 47.2 mph N/A   Overcast
5:36 PM 42.8 °F 31.3 °F 32.0 °F 66% 29.07 in 7.0 mi SE 36.8 mph 49.5 mph N/A   Overcast
5:56 PM 42.8 °F 31.0 °F 32.0 °F 66% 29.06 in 9.0 mi SE 39.1 mph 51.8 mph N/A   Overcast
6:16 PM 42.8 °F 31.0 °F 33.8 °F 70% 29.07 in 9.0 mi SE 39.1 mph 50.6 mph N/A   Overcast
6:36 PM 42.8 °F 31.0 °F 33.8 °F 70% 29.06 in 9.0 mi SE 39.1 mph 48.3 mph N/A   Overcast
6:56 PM 42.8 °F 31.0 °F 33.8 °F 70% 29.06 in 10.0 mi SE 39.1 mph 48.3 mph N/A   Overcast
7:16 PM - - - N/A% 29.06 in 10.0 mi SE 35.7 mph 47.2 mph N/A   Overcast
7:36 PM 42.8 °F 31.3 °F 33.8 °F 70% 29.07 in 9.0 mi SE 36.8 mph 42.6 mph N/A   Overcast
7:56 PM 42.8 °F 32.1 °F 33.8 °F 70% 29.09 in 10.0 mi SE 31.1 mph 43.7 mph N/A   Overcast
8:16 PM 42.8 °F 32.5 °F 33.8 °F 70% 29.09 in 10.0 mi SE 28.8 mph 35.7 mph N/A   Overcast
8:36 PM 42.8 °F 33.1 °F 33.8 °F 70% 29.11 in 10.0 mi SE 25.3 mph 32.2 mph N/A   Mostly Cloudy
8:56 PM 39.2 °F 28.5 °F 32.0 °F 75% 29.13 in 10.0 mi SSE 24.2 mph 29.9 mph N/A   Clear
9:16 PM 41.0 °F 30.7 °F 32.0 °F 70% 29.14 in 10.0 mi SSE 25.3 mph 32.2 mph N/A   Clear
9:36 PM 39.2 °F 28.7 °F 30.2 °F 70% 29.16 in 10.0 mi SSE 23.0 mph 32.2 mph N/A   Clear
9:56 PM 37.4 °F 26.4 °F 30.2 °F 75% 29.17 in 10.0 mi SE 23.0 mph - N/A   Clear
10:16 PM 37.4 °F 26.9 °F 28.4 °F 70% 29.18 in 10.0 mi SE 20.7 mph - N/A   Clear
10:36 PM 37.4 °F 28.2 °F 28.4 °F 70% 29.19 in 10.0 mi SE 16.1 mph - N/A   Clear
10:56 PM 37.4 °F 28.2 °F 28.4 °F 70% 29.19 in 10.0 mi SE 16.1 mph - N/A   Clear
11:16 PM 35.6 °F 26.6 °F 26.6 °F 70% 29.20 in 10.0 mi SSE 13.8 mph - N/A   Clear
11:36 PM 35.6 °F 26.2 °F 26.6 °F 70% 29.20 in 10.0 mi SE 15.0 mph - N/A   Clear
11:56 PM 37.4 °F 28.2 °F 26.6 °F 65% 29.21 in 10.0 mi SSE 16.1 mph 20.7 mph N/A   Clear